Tillbaka till svenska Fidonet
English   Information   Debug  
FILM   0/18
FNEWS_PUBLISH   4926
FN_SYSOP   42201
FN_SYSOP_OLD1   71952
FTP_FIDO   0/2
FTSC_PUBLIC   0/13972
FUNNY   0/4886
GENEALOGY.EUR   0/71
GET_INFO   105
GOLDED   0/408
HAM   3368/16660
HOLYSMOKE   0/6791
HOT_SITES   0/1
HTMLEDIT   0/71
HUB203   466
HUB_100   264
HUB_400   39
HUMOR   0/29
IC   0/2851
INTERNET   0/424
INTERUSER   0/3
IP_CONNECT   719
JAMNNTPD   0/233
JAMTLAND   0/47
KATTY_KORNER   0/41
LAN   0/16
LINUX-USER   0/19
LINUXHELP   0/1155
LINUX   0/22300
LINUX_BBS   0/957
mail   18.68
mail_fore_ok   249
MENSA   0/341
MODERATOR   0/102
MONTE   0/992
MOSCOW_OKLAHOMA   0/1245
MUFFIN   0/783
MUSIC   0/321
N203_STAT   938
N203_SYSCHAT   313
NET203   321
NET204   69
NET_DEV   0/10
NORD.ADMIN   0/101
NORD.CHAT   0/2572
NORD.FIDONET   189
NORD.HARDWARE   0/28
NORD.KULTUR   0/114
NORD.PROG   0/32
NORD.SOFTWARE   0/88
NORD.TEKNIK   0/58
NORD   0/453
OCCULT_CHAT   0/93
OS2BBS   0/787
OS2DOSBBS   0/580
OS2HW   0/42
OS2INET   0/37
OS2LAN   0/134
OS2PROG   0/36
OS2REXX   0/113
OS2USER-L   207
OS2   0/4830
OSDEBATE   2893/18996
PASCAL   0/490
PERL   0/457
PHP   0/45
POINTS   0/405
POLITICS   0/29554
POL_INC   0/14731
PSION   103
R20_ADMIN   1133
R20_AMATORRADIO   0/2
R20_BEST_OF_FIDONET   16
R20_CHAT   0/896
R20_DEPP   0/3
R20_DEV   400
R20_ECHO2   1831
R20_ECHOPRES   0/35
R20_ESTAT   0/719
R20_FIDONETPROG...
...RAM.MYPOINT
  0/2
R20_FIDONETPROGRAM   0/22
R20_FIDONET   0/248
R20_FILEFIND   0/24
R20_FILEFOUND   0/22
R20_HIFI   0/3
R20_INFO2   3723
R20_INTERNET   0/12940
R20_INTRESSE   0/60
R20_INTR_KOM   0/99
R20_KANDIDAT.CHAT   42
R20_KANDIDAT   28
R20_KOM_DEV   112
R20_KONTROLL   0/13360
R20_KORSET   0/18
R20_LOKALTRAFIK   0/24
R20_MODERATOR   0/1852
R20_NC   76
R20_NET200   245
R20_NETWORK.OTH...
...ERNETS
  0/13
R20_OPERATIVSYS...
...TEM.LINUX
  0/44
R20_PROGRAMVAROR   0/1
R20_REC2NEC   534
R20_SFOSM   0/341
R20_SF   0/108
R20_SPRAK.ENGLISH   0/1
R20_SQUISH   107
R20_TEST   2
R20_WORST_OF_FIDONET   20
RAR   0/9
RA_MULTI   106
RA_UTIL   0/162
REGCON.EUR   0/2068
REGCON   0/13
SCIENCE   0/1206
SF   0/239
SHAREWARE_SUPPORT   0/5146
SHAREWRE   0/14
SIMPSONS   0/169
STATS_OLD1   0/2539.065
STATS_OLD2   0/2530
STATS_OLD3   0/2395.095
STATS_OLD4   0/1692.25
SURVIVOR   0/495
SYSOPS_CORNER   0/3
SYSOP   0/84
TAGLINES   0/112
TEAMOS2   0/4530
TECH   0/2617
TEST.444   0/105
TRAPDOOR   0/19
TREK   0/755
TUB   0/290
UFO   0/40
UNIX   0/1316
USA_EURLINK   0/102
USR_MODEMS   0/1
VATICAN   0/2740
VIETNAM_VETS   0/14
VIRUS   0/378
VIRUS_INFO   0/201
VISUAL_BASIC   0/473
WHITEHOUSE   0/5187
WIN2000   0/101
WIN32   0/30
WIN95   0/4291
WIN95_OLD1   0/70272
WINDOWS   0/1517
WWB_SYSOP   0/419
WWB_TECH   0/810
ZCC-PUBLIC   0/1
ZEC   4

 
4DOS   0/134
ABORTION   0/7
ALASKA_CHAT   0/506
ALLFIX_FILE   0/1313
ALLFIX_FILE_OLD1   0/7997
ALT_DOS   0/152
AMATEUR_RADIO   0/1039
AMIGASALE   0/14
AMIGA   0/331
AMIGA_INT   0/1
AMIGA_PROG   0/20
AMIGA_SYSOP   0/26
ANIME   0/15
ARGUS   0/924
ASCII_ART   0/340
ASIAN_LINK   0/651
ASTRONOMY   0/417
AUDIO   0/92
AUTOMOBILE_RACING   0/105
BABYLON5   0/17862
BAG   135
BATPOWER   0/361
BBBS.ENGLISH   0/382
BBSLAW   0/109
BBS_ADS   0/5290
BBS_INTERNET   0/507
BIBLE   0/3563
BINKD   0/1119
BINKLEY   0/215
BLUEWAVE   0/2173
CABLE_MODEMS   0/25
CBM   0/46
CDRECORD   0/66
CDROM   0/20
CLASSIC_COMPUTER   0/378
COMICS   0/15
CONSPRCY   0/899
COOKING   41444
COOKING_OLD1   0/24719
COOKING_OLD2   0/40862
COOKING_OLD3   0/37489
COOKING_OLD4   0/35496
COOKING_OLD5   9370
C_ECHO   0/189
C_PLUSPLUS   0/31
DIRTY_DOZEN   0/201
DOORGAMES   0/2285
DOS_INTERNET   0/196
duplikat   6102
ECHOLIST   0/18295
EC_SUPPORT   0/318
ELECTRONICS   0/359
ELEKTRONIK.GER   1534
ENET.LINGUISTIC   0/13
ENET.POLITICS   0/4
ENET.SOFT   0/11701
ENET.SYSOP   34296
ENET.TALKS   0/32
ENGLISH_TUTOR   0/2000
EVOLUTION   0/1335
FDECHO   0/217
FDN_ANNOUNCE   0/7068
FIDONEWS   25062
FIDONEWS_OLD1   0/49742
FIDONEWS_OLD2   0/35949
FIDONEWS_OLD3   0/30874
FIDONEWS_OLD4   0/37224
FIDO_SYSOP   12922
FIDO_UTIL   0/180
FILEFIND   0/209
FILEGATE   0/212
Möte HAM, 16660 texter
 lista första sista föregående nästa
Text 2841, 773 rader
Skriven 2009-03-12 22:00:22 av Amsat List (1:323/120.0)
Ärende: [keps]  orb09071.amsa
=============================
[keps]  orb09071.amsa

Return-Path: <keps-bounces@amsat.org>
X-Rcpt: craig.healy@chowda.com
X-UIDL: 1236954426.63420

SB KEPS @ AMSAT  $ORB09071.O
Orbital Elements  09071.OSCAR

HR AMSAT ORBITAL ELEMENTS FOR OSCAR SATELLITES
FROM WA5QGD FORT WORTH,TX March 12, 2009
Send Subscribe/unsubscribe to KEPS at 
http://www.amsat.org/mailman/listinfo/keps
BID: ORB09071.O
TO ALL RADIO AMATEURS BT

Satellite: AO-07
Catalog number: 07530
Epoch time:      09070.64518355
Element set:    0424
Inclination:      101.4377 deg
RA of node:       098.8704 deg
Eccentricity:    0.0012074
Arg of perigee:   099.5496 deg
Mean anomaly:     260.6938 deg
Mean motion:   12.53575326 rev/day
Decay rate:       -2.7e-07 rev/day^2
Epoch rev:           57049
Checksum:              319

Satellite: AO-10
Catalog number: 14129
Epoch time:      09069.65303323
Element set:    0632
Inclination:      025.9749 deg
RA of node:       167.5509 deg
Eccentricity:    0.5979132
Arg of perigee:   204.6974 deg
Mean anomaly:     107.8414 deg
Mean motion:   02.05867899 rev/day
Decay rate:      -1.36e-06 rev/day^2
Epoch rev:           19359
Checksum:              342

Satellite: UO-11
Catalog number: 14781
Epoch time:      09070.70377287
Element set:     907
Inclination:      098.1194 deg
RA of node:       114.2301 deg
Eccentricity:    0.0008152
Arg of perigee:   294.9207 deg
Mean anomaly:     065.1150 deg
Mean motion:   14.79699284 rev/day
Decay rate:       1.87e-06 rev/day^2
Epoch rev:           34341
Checksum:              307

Satellite: RS-15
Catalog number: 23439
Epoch time:      09070.95120493
Element set:    0237
Inclination:      064.8132 deg
RA of node:       062.0539 deg
Eccentricity:    0.0146228
Arg of perigee:   070.4260 deg
Mean anomaly:     291.2389 deg
Mean motion:   11.27553248 rev/day
Decay rate:       -3.9e-07 rev/day^2
Epoch rev:           58515
Checksum:              299

Satellite: FO-29
Catalog number: 24278
Epoch time:      09070.75490407
Element set:    0001
Inclination:      098.5663 deg
RA of node:       317.8157 deg
Eccentricity:    0.0349829
Arg of perigee:   242.7597 deg
Mean anomaly:     113.7498 deg
Mean motion:   13.52941946 rev/day
Decay rate:       -3.2e-07 rev/day^2
Epoch rev:           62057
Checksum:              341

Satellite: SO-33
Catalog number: 25509
Epoch time:      09070.82880247
Element set:    0407
Inclination:      031.4319 deg
RA of node:       243.0131 deg
Eccentricity:    0.0354683
Arg of perigee:   207.3285 deg
Mean anomaly:     150.8278 deg
Mean motion:   14.28247764 rev/day
Decay rate:       3.08e-06 rev/day^2
Epoch rev:           54190
Checksum:              300

Satellite: AO-40
Catalog number: 26609
Epoch time:      09070.74493273
Element set:     201
Inclination:      008.9102 deg
RA of node:       028.8958 deg
Eccentricity:    0.7955221
Arg of perigee:   183.6787 deg
Mean anomaly:     160.9658 deg
Mean motion:   01.25583457 rev/day
Decay rate:      -3.25e-06 rev/day^2
Epoch rev:            3840
Checksum:              327

Satellite: RS-22
Catalog number: 27939
Epoch time:      09070.68997137
Element set:     736
Inclination:      097.9588 deg
RA of node:       309.0294 deg
Eccentricity:    0.0014679
Arg of perigee:   080.0252 deg
Mean anomaly:     280.2612 deg
Mean motion:   14.63299572 rev/day
Decay rate:        3.4e-07 rev/day^2
Epoch rev:           29131
Checksum:              336

Satellite: VO-52
Catalog number: 28650
Epoch time:      09070.72862253
Element set:     175
Inclination:      097.7528 deg
RA of node:       135.4844 deg
Eccentricity:    0.0027130
Arg of perigee:   350.3959 deg
Mean anomaly:     009.6772 deg
Mean motion:   14.81559000 rev/day
Decay rate:      -1.30e-06 rev/day^2
Epoch rev:           20821
Checksum:              298

Satellite: PO-63
Catalog number: 29712
Epoch time:      09071.16731708
Element set:     303
Inclination:      097.8402 deg
RA of node:       129.8502 deg
Eccentricity:    0.0013227
Arg of perigee:   228.3604 deg
Mean anomaly:     131.6469 deg
Mean motion:   14.80466181 rev/day
Decay rate:       4.23e-06 rev/day^2
Epoch rev:           11711
Checksum:              282

/EX
SB KEPS @ AMSAT  $ORB09071.D
Orbital Elements  09071.MICROS

HR AMSAT ORBITAL ELEMENTS FOR THE MICROSATS
FROM WA5QGD FORT WORTH,TX March 12, 2009
Send Subscribe/unsubscribe to KEPS at 
http://www.amsat.org/mailman/listinfo/keps
BID: ORB09071.D
TO ALL RADIO AMATEURS BT

Satellite: AO-16
Catalog number: 20439
Epoch time:      09070.78941705
Element set:    0554
Inclination:      098.2672 deg
RA of node:       043.6775 deg
Eccentricity:    0.0011934
Arg of perigee:   099.6208 deg
Mean anomaly:     260.6322 deg
Mean motion:   14.31818045 rev/day
Decay rate:        9.0e-08 rev/day^2
Epoch rev:           99921
Checksum:              321

Satellite: LO-19
Catalog number: 20442
Epoch time:      09070.79250867
Element set:    0476
Inclination:      098.2322 deg
RA of node:       051.3140 deg
Eccentricity:    0.0012979
Arg of perigee:   097.3562 deg
Mean anomaly:     262.9089 deg
Mean motion:   14.32054254 rev/day
Decay rate:       -3.9e-07 rev/day^2
Epoch rev:           99937
Checksum:              326

Satellite: AO-27
Catalog number: 22825
Epoch time:      09071.53709153
Element set:     196
Inclination:      098.4250 deg
RA of node:       028.0578 deg
Eccentricity:    0.0008342
Arg of perigee:   183.3809 deg
Mean anomaly:     176.7317 deg
Mean motion:   14.29260754 rev/day
Decay rate:        8.9e-07 rev/day^2
Epoch rev:           80610
Checksum:              316

